Location: Oshawa
(43.9000°N, 78.8670°W)
Time: 02:41:32
(UTC-04:00)

Altair - Visible Passes

Search period start: 23 October 2014 00:00
Search period end: 02 November 2014 00:00
Orbit: 1501 x 1683 km, 47.2° (Epoch: 21 October)

Date Brightness Start Highest point End Pass type
(mag) Time Alt. Az. Time Alt. Az. Time Alt. Az.
23 Oct 8.8 03:32:40 27° SE 03:32:56 27° SE 03:40:46 10° ENE visible
23 Oct 7.7 05:30:44 29° SW 05:36:32 72° SSE 05:46:35 10° ENE visible
24 Oct 9.0 03:09:17 24° ESE 03:09:17 24° ESE 03:15:22 10° E visible
24 Oct 7.7 05:07:20 40° SW 05:11:23 69° SSE 05:21:22 10° ENE visible
24 Oct 7.8 07:06:26 10° W 07:16:24 76° N 07:26:37 10° ENE visible
25 Oct 9.2 02:45:50 20° ESE 02:45:50 20° ESE 02:49:55 10° E visible
25 Oct 7.7 04:43:53 52° SSW 04:46:15 65° SSE 04:56:09 10° ENE visible
25 Oct 7.7 06:41:56 13° W 06:51:10 77° N 07:01:23 10° ENE visible
26 Oct 9.5 02:22:20 15° E 02:22:20 15° E 02:24:25 10° E visible
26 Oct 7.7 04:20:22 60° SSE 04:21:08 61° SE 04:30:56 10° ENE visible
26 Oct 7.6 06:18:25 20° W 06:25:57 79° NNW 06:36:09 10° ENE visible
27 Oct 9.7 01:58:47 10° E 01:58:47 10° E 01:58:51 10° E visible
27 Oct 7.9 03:56:49 56° SE 03:56:49 56° SE 04:05:43 10° ENE visible
27 Oct 7.6 05:54:51 29° W 06:00:44 80° NNW 06:10:55 10° ENE visible
28 Oct 8.2 03:33:13 46° ESE 03:33:13 46° ESE 03:40:30 10° ENE visible
28 Oct 7.5 05:31:15 40° W 05:35:31 82° NNW 05:45:42 10° ENE visible
29 Oct 8.6 03:09:35 35° E 03:09:35 35° E 03:15:16 10° ENE visible
29 Oct 7.5 05:07:36 55° W 05:10:19 84° NNW 05:20:28 10° ENE visible
29 Oct 7.8 07:05:51 10° W 07:15:49 75° N 07:26:01 10° E visible
30 Oct 9.0 02:45:55 27° E 02:45:55 27° E 02:50:01 10° ENE visible
30 Oct 7.4 04:43:56 74° W 04:45:07 87° NNW 04:55:15 10° ENE visible
30 Oct 7.7 06:41:58 15° W 06:50:35 75° N 07:00:47 10° E visible
31 Oct 9.3 02:22:14 19° ENE 02:22:14 19° ENE 02:24:46 10° ENE visible
31 Oct 7.4 04:20:15 85° ENE 04:20:15 85° ENE 04:30:02 10° ENE visible
31 Oct 7.7 06:18:17 22° WNW 06:25:21 74° N 06:35:32 10° E visible
01 Nov 9.6 01:58:31 13° ENE 01:58:31 13° ENE 01:59:31 10° ENE visible
01 Nov 7.7 03:56:33 66° ENE 03:56:33 66° ENE 04:04:49 10° ENE visible
01 Nov 7.7 05:54:34 31° WNW 06:00:07 74° N 06:10:16 10° E visible
